PBO Station Position Time Series. Reference Frame : NAM14
Format Version,1.1.0
4-character ID,PSTX
Station name,SanIsidoroMX2010
Begin Date, 2010-08-31
End Date, 2020-02-22
Release Date, 2021-08-28
Reference position, 31.3131213339 North Latitude, -115.8354330699 East Longitude, 902.11802 meters elevation,
Date, North (mm), East (mm), Vertical (mm), North Std. Deviation (mm), East Std. Deviation (mm),              Vertical Std. Deviation (mm), Quality,
2010-08-31,0.00, 0.00, 0.00, 2.00, 1.78, 7.99, repro,
2010-09-01,-0.49, -0.39, -4.77, 1.79, 1.64, 7.27, repro,
2010-09-02,-0.60, -0.51, -5.51, 1.76, 1.61, 7.13, repro,
2010-09-03,-0.84, -0.54, -6.27, 1.77, 1.61, 7.16, repro,
2010-09-04,-0.80, -0.50, -8.26, 1.77, 1.62, 7.14, repro,
2010-09-05,0.48, 0.26, 3.20, 1.77, 1.62, 7.20, repro,
2010-09-06,0.27, 0.51, 1.92, 1.78, 1.63, 7.26, repro,
2010-09-07,-1.17, -0.53, -7.06, 1.77, 1.61, 7.16, repro,
2010-09-08,-1.18, 0.47, -8.69, 1.76, 1.61, 7.12, repro,
2010-09-09,-0.62, 0.87, -9.49, 1.76, 1.62, 7.12, repro,
2010-09-10,-0.31, 0.71, -11.46, 1.77, 1.62, 7.17, repro,
2010-09-11,-0.37, 0.31, -9.09, 1.81, 1.69, 7.32, repro,
2010-09-12,0.24, -0.25, -8.09, 1.78, 1.62, 7.20, repro,
2010-09-13,0.82, -0.52, -10.21, 1.77, 1.62, 7.17, repro,
2010-09-14,0.40, -0.37, -8.94, 1.77, 1.61, 7.14, repro,
2010-09-15,-0.64, -1.10, -3.95, 1.78, 1.63, 7.23, repro,
2010-09-16,-0.35, 0.28, -8.32, 1.78, 1.64, 7.24, repro,
2010-09-17,-0.34, -1.16, -5.45, 1.78, 1.62, 7.20, repro,
2010-09-18,-0.32, -1.34, -2.96, 1.77, 1.62, 7.21, repro,
2010-09-19,-0.23, -0.77, -4.43, 1.77, 1.61, 7.17, repro,
2010-09-20,-1.56, 0.32, -3.13, 1.77, 1.62, 7.19, repro,
2010-09-21,-0.52, -0.48, -1.94, 1.78, 1.65, 7.33, repro,
2010-09-22,-0.31, -1.22, -1.15, 1.80, 1.67, 7.39, repro,
2010-09-23,0.75, -0.14, -2.94, 1.85, 1.64, 7.37, repro,
2010-09-24,0.54, -0.47, -9.27, 1.76, 1.60, 7.10, repro,
2010-09-25,0.06, 0.53, -5.57, 1.78, 1.62, 7.19, repro,
2010-09-26,-1.49, -0.31, -9.88, 1.79, 1.66, 7.27, repro,
2010-09-27,0.06, 0.26, -9.74, 1.83, 1.66, 7.19, repro,
2010-09-28,0.75, -1.96, -1.89, 1.84, 1.69, 7.34, repro,
2010-09-29,-0.86, -1.24, -3.21, 1.78, 1.62, 7.18, repro,
2010-09-30,0.09, -1.10, -4.21, 1.81, 1.64, 7.27, repro,
2010-10-01,-1.16, -0.98, -2.54, 1.86, 1.74, 7.67, repro,
2010-10-02,-0.93, -3.47, 0.31, 1.82, 1.67, 7.42, repro,
2010-10-03,-0.79, -0.32, -17.94, 1.82, 1.65, 7.29, repro,
2010-10-04,0.52, -0.90, -6.11, 1.86, 1.67, 7.45, repro,
2010-10-05,-1.10, 0.47, -10.69, 1.82, 1.65, 7.34, repro,
2010-10-06,-0.39, -0.77, -14.55, 1.78, 1.61, 7.17, repro,
2010-10-07,0.92, 0.58, -18.58, 1.78, 1.61, 7.13, repro,
2010-10-08,0.95, -0.34, -15.14, 1.91, 1.74, 7.69, repro,
2010-10-09,-0.55, -0.90, -8.92, 1.82, 1.64, 7.33, repro,
2010-10-10,-0.10, 0.58, -4.43, 1.87, 1.68, 7.49, repro,
2010-10-11,0.16, 0.73, -10.14, 1.87, 1.72, 7.60, repro,
2010-10-12,0.47, 0.07, -12.87, 1.83, 1.63, 7.30, repro,
2010-10-13,-0.48, -0.97, -14.21, 1.85, 1.67, 7.38, repro,
2010-10-14,-0.31, -1.32, -9.29, 1.80, 1.66, 7.35, repro,
2010-10-15,-0.00, 0.26, -1.61, 1.80, 1.65, 7.34, repro,
2010-10-16,-0.25, 0.08, -10.05, 1.80, 1.60, 7.13, repro,
2010-10-17,-0.42, -0.11, -10.46, 1.82, 1.62, 7.18, repro,
2010-10-18,-0.47, -0.91, -13.68, 1.85, 1.66, 7.24, repro,
2010-10-19,-0.58, -0.73, -14.60, 1.88, 1.72, 7.32, repro,
2010-10-20,-0.38, -1.02, -7.24, 1.81, 1.65, 7.26, repro,
2010-10-21,0.61, 0.17, -9.07, 1.84, 1.69, 7.37, repro,
2010-10-22,0.03, -1.26, -7.52, 1.84, 1.64, 7.31, repro,
2010-10-23,-0.01, -0.69, -16.41, 1.85, 1.65, 7.33, repro,
2010-10-24,-0.03, -1.29, -11.74, 1.83, 1.67, 7.41, repro,
2010-10-25,0.36, -2.57, -10.31, 1.85, 1.65, 7.29, repro,
2010-10-26,1.59, -1.45, -7.77, 1.78, 1.61, 7.13, repro,
2010-10-27,1.21, -0.65, -9.67, 1.79, 1.61, 7.19, repro,
2010-10-28,0.99, -1.31, -12.25, 1.82, 1.64, 7.23, repro,
2010-10-29,0.05, -1.16, -12.69, 1.78, 1.60, 7.12, repro,
2010-10-30,-0.74, -1.41, -13.25, 1.77, 1.59, 7.06, repro,
2010-10-31,-0.64, -1.29, -11.51, 1.85, 1.72, 7.38, repro,
2010-11-01,0.06, -1.26, -10.48, 1.89, 1.75, 7.48, repro,
2010-11-02,0.85, -0.59, -15.48, 1.82, 1.64, 7.22, repro,
2010-11-03,0.74, -1.54, -12.25, 1.83, 1.66, 7.28, repro,
2010-11-04,-0.12, -0.13, -11.99, 1.79, 1.61, 7.12, repro,
2010-11-05,0.03, -1.32, -9.58, 1.86, 1.68, 7.35, repro,
2010-11-06,0.70, -1.40, -9.11, 1.82, 1.64, 7.22, repro,
2010-11-07,-0.59, -1.41, -8.70, 1.86, 1.67, 7.33, repro,
2010-11-08,0.32, -1.52, -4.16, 1.80, 1.61, 7.18, repro,
2010-11-09,0.30, -1.34, -9.48, 1.85, 1.65, 7.31, repro,
2010-11-10,-0.01, -1.40, -8.52, 1.83, 1.65, 7.24, repro,
2010-11-11,-0.01, -1.81, -8.51, 1.86, 1.67, 7.28, repro,
2010-11-12,1.17, -0.93, -14.46, 1.82, 1.62, 7.18, repro,
2010-11-13,0.82, -1.37, -13.55, 1.96, 1.85, 7.98, repro,
2010-11-14,0.10, -1.03, -9.62, 1.93, 1.71, 7.79, repro,
2010-11-15,1.03, -0.27, -6.55, 1.88, 1.67, 7.61, repro,
2010-11-16,-0.09, -0.61, -8.72, 1.90, 1.67, 7.59, repro,
2010-11-17,0.02, 0.26, -9.76, 2.07, 1.79, 8.19, repro,
2010-11-18,0.62, -0.18, -9.41, 1.86, 1.64, 7.47, repro,
2010-11-19,-0.73, -0.82, -8.38, 1.89, 1.66, 7.51, repro,
2010-11-20,-0.66, -0.96, -9.00, 1.89, 1.65, 7.57, repro,
2010-11-21,0.52, 1.00, -10.59, 1.90, 1.72, 7.52, repro,
2010-11-22,-0.75, -1.90, -8.71, 1.90, 1.71, 7.49, repro,
2010-11-23,-0.53, -1.34, -8.64, 1.85, 1.64, 7.50, repro,
2010-11-24,-1.42, -1.57, -6.15, 1.83, 1.63, 7.33, repro,
2010-11-25,-1.47, -1.97, -8.35, 1.93, 1.67, 7.80, repro,
2010-11-26,0.24, -0.71, -8.72, 1.93, 1.66, 7.76, repro,
2010-11-27,-0.10, -1.07, -9.31, 1.85, 1.64, 7.50, repro,
2010-11-28,0.59, -1.41, -8.81, 1.93, 1.65, 7.73, repro,
2010-11-29,0.07, -0.13, -14.11, 1.85, 1.64, 7.52, repro,
2010-11-30,0.97, -0.85, -12.49, 1.89, 1.65, 7.65, repro,
2010-12-01,-0.11, -0.49, -11.68, 1.88, 1.64, 7.59, repro,
2010-12-02,-0.83, -0.01, -16.30, 1.86, 1.64, 7.55, repro,
2010-12-03,-0.35, -0.28, -13.55, 1.86, 1.64, 7.53, repro,
2010-12-04,0.01, -0.52, -14.18, 1.86, 1.64, 7.55, repro,
2010-12-05,-0.94, -0.39, -12.61, 1.95, 1.66, 7.82, repro,
2010-12-06,-1.58, -1.41, -12.81, 1.90, 1.70, 7.58, repro,
2010-12-07,-0.49, -0.43, -9.92, 1.88, 1.68, 7.67, repro,
2010-12-08,-0.45, -1.57, -14.05, 1.93, 1.65, 7.79, repro,
2010-12-09,-0.24, -1.11, -14.00, 1.84, 1.63, 7.36, repro,
2010-12-10,0.14, -1.88, -6.91, 1.89, 1.70, 7.75, repro,
2010-12-11,-0.15, -1.08, -7.45, 1.84, 1.63, 7.31, repro,
2010-12-12,1.41, -1.44, -12.87, 1.84, 1.57, 7.23, repro,
2010-12-13,-0.67, -1.78, -8.93, 1.92, 1.58, 7.41, repro,
2010-12-14,0.24, -1.94, -6.21, 1.96, 1.73, 7.72, repro,
2010-12-15,-0.06, -0.93, -3.20, 1.93, 1.70, 7.61, repro,
2010-12-16,-1.27, -1.50, -5.92, 1.83, 1.60, 7.25, repro,
2010-12-17,-2.14, -2.31, -12.82, 1.87, 1.59, 7.22, repro,
2010-12-18,-0.16, -1.02, -11.91, 1.81, 1.57, 7.06, repro,
2010-12-19,-1.84, -3.03, -6.19, 1.89, 1.63, 7.43, repro,
2010-12-20,-1.26, -1.74, -9.85, 1.89, 1.63, 7.44, repro,
2010-12-21,-1.88, 1.27, -16.65, 1.93, 1.70, 7.63, repro,
2010-12-22,0.51, -0.37, -11.57, 1.92, 1.65, 7.59, repro,
2010-12-23,-1.18, -2.47, -8.10, 1.91, 1.65, 7.54, repro,
2010-12-24,-0.56, -1.17, -13.14, 1.83, 1.61, 7.29, repro,
2010-12-25,-1.07, -1.15, -10.05, 1.82, 1.59, 7.25, repro,
2010-12-26,-2.00, -1.79, -10.63, 1.83, 1.60, 7.29, repro,
2010-12-27,0.65, -1.40, -11.11, 1.83, 1.61, 7.27, repro,
2010-12-28,0.61, -1.02, -9.94, 1.86, 1.65, 7.38, repro,
2010-12-29,-1.45, -1.74, -4.76, 1.90, 1.68, 7.51, repro,
2010-12-30,0.12, -2.90, -3.46, 1.87, 1.63, 7.38, repro,
2010-12-31,-1.37, -1.36, -6.78, 1.84, 1.61, 7.31, repro,
2011-01-01,-0.21, -0.85, -8.92, 1.83, 1.60, 7.29, repro,
2011-01-02,-0.86, 0.06, -11.65, 2.14, 1.78, 8.51, repro,
2011-01-03,-0.65, -0.83, -11.62, 1.86, 1.66, 7.41, repro,
2011-01-04,-0.29, -1.11, -11.89, 1.89, 1.65, 7.46, repro,
2011-01-05,0.39, -1.33, -12.11, 1.87, 1.66, 7.48, repro,
2011-01-06,-0.27, -2.12, -12.49, 1.88, 1.64, 7.39, repro,
2011-01-07,-0.27, -1.79, -7.32, 1.85, 1.64, 7.41, repro,
2011-01-08,-0.51, -1.41, -11.32, 1.83, 1.62, 7.28, repro,
2011-01-09,-0.08, -0.55, -7.09, 1.81, 1.57, 7.15, repro,
2011-01-10,-0.64, -2.00, -10.64, 1.91, 1.71, 7.58, repro,
2011-01-11,-0.33, -0.91, -10.27, 1.89, 1.71, 7.62, repro,
2011-01-12,0.53, -0.98, -14.80, 1.85, 1.62, 7.27, repro,
2011-01-13,0.20, -1.14, -13.71, 1.90, 1.71, 7.48, repro,
2011-01-14,-0.30, -1.02, -12.42, 1.84, 1.62, 7.26, repro,
2011-01-15,1.74, -1.83, -10.38, 1.84, 1.63, 7.32, repro,
2011-01-16,1.23, -1.70, -8.21, 1.86, 1.63, 7.37, repro,
2011-01-17,2.36, -0.90, -5.71, 1.82, 1.57, 7.17, repro,
2011-01-18,-0.36, -1.30, -6.39, 1.85, 1.61, 7.32, repro,
2011-01-19,-1.17, -1.51, -8.02, 1.86, 1.67, 7.43, repro,
2011-01-20,0.98, -1.76, -7.86, 1.84, 1.62, 7.31, repro,
2011-01-21,0.75, -2.17, -5.75, 1.85, 1.68, 7.48, repro,
2011-01-22,0.49, -1.48, -4.61, 1.87, 1.66, 7.53, repro,
2011-01-23,1.99, -2.22, -8.97, 1.89, 1.70, 7.69, repro,
2011-01-24,0.67, -1.57, -7.52, 1.87, 1.71, 7.72, repro,
2011-01-25,1.39, -1.63, -9.66, 1.85, 1.65, 7.46, repro,
2011-01-26,0.70, -1.29, -6.97, 2.02, 1.79, 8.24, repro,
2011-01-27,0.14, -2.54, -15.68, 1.89, 1.78, 7.87, repro,
2011-01-28,0.33, -0.56, -10.52, 1.81, 1.57, 7.19, repro,
2011-01-29,0.14, -1.62, -12.87, 1.84, 1.60, 7.34, repro,
2011-01-30,0.97, -2.23, -12.33, 1.83, 1.59, 7.30, repro,
2011-01-31,0.24, -1.97, -14.75, 1.88, 1.71, 7.69, repro,
2011-02-01,0.93, -2.07, -17.18, 1.86, 1.64, 7.45, repro,
2011-02-02,2.65, -1.98, -19.14, 1.85, 1.65, 7.45, repro,
2011-02-03,1.08, -2.03, -18.95, 1.90, 1.67, 7.53, repro,
2011-02-04,1.02, -2.78, -16.71, 1.89, 1.70, 7.53, repro,
2011-02-05,1.46, -2.53, -11.67, 1.86, 1.63, 7.49, repro,
2011-02-06,0.64, -2.92, -12.62, 1.95, 1.83, 8.06, repro,
2011-02-07,0.74, -2.36, -11.44, 1.88, 1.69, 7.62, repro,
2011-02-08,-0.35, -2.82, -7.44, 1.86, 1.63, 7.50, repro,
2011-02-09,2.45, -1.75, -10.60, 1.86, 1.65, 7.45, repro,
2011-02-10,1.62, -2.18, -11.26, 1.86, 1.65, 7.49, repro,
2011-02-11,1.48, -2.65, -7.65, 1.96, 1.78, 7.97, repro,
2011-02-12,2.11, -1.84, -9.69, 1.91, 1.77, 7.93, repro,
2011-02-13,2.06, -2.38, -8.06, 1.84, 1.66, 7.54, repro,
2011-02-14,1.98, -2.12, -14.30, 1.83, 1.60, 7.38, repro,
2011-02-15,0.66, -3.34, -12.02, 1.95, 1.80, 8.13, repro,
2011-02-16,1.09, -2.49, -10.63, 2.02, 1.88, 8.28, repro,
2011-02-17,-0.30, -3.13, -9.67, 1.86, 1.64, 7.49, repro,
2011-02-18,0.29, -1.85, -17.67, 1.88, 1.67, 7.64, repro,
2011-02-19,-0.41, -1.37, -17.63, 1.82, 1.59, 7.29, repro,
2011-02-20,-0.01, -2.45, -14.23, 1.82, 1.58, 7.24, repro,
2011-02-21,1.46, -2.37, -10.28, 1.83, 1.58, 7.26, repro,
2011-02-22,0.82, -2.04, -8.26, 1.84, 1.60, 7.34, repro,
2011-02-23,-1.02, -2.01, -9.55, 1.87, 1.64, 7.39, repro,
2011-02-24,0.44, -1.23, -6.53, 1.80, 1.56, 7.15, repro,
2011-02-25,-1.29, -2.09, -8.89, 1.82, 1.56, 7.21, repro,
2011-02-26,-1.02, -2.19, -10.09, 1.81, 1.56, 7.15, repro,
2011-02-27,-1.23, -2.58, -5.06, 1.83, 1.56, 7.22, repro,
2011-02-28,1.06, -2.61, -9.33, 1.82, 1.56, 7.19, repro,
2011-03-01,-0.60, -2.09, -6.21, 1.81, 1.55, 7.15, repro,
2011-03-02,0.79, -2.75, -12.64, 1.82, 1.56, 7.20, repro,
2011-03-03,-0.66, -0.93, -13.21, 1.82, 1.57, 7.22, repro,
2011-03-04,0.28, -1.43, -15.20, 1.81, 1.55, 7.14, repro,
2011-03-05,0.28, -2.10, -11.50, 1.83, 1.56, 7.21, repro,
2011-03-06,0.21, -2.14, -18.21, 1.81, 1.55, 7.18, repro,
2011-03-07,0.57, -3.53, -9.99, 1.81, 1.56, 7.19, repro,
2011-03-08,0.71, -2.81, -13.86, 1.81, 1.56, 7.19, repro,
2011-03-09,1.76, -1.62, -13.78, 1.82, 1.56, 7.20, repro,
2011-03-10,1.11, -2.67, -10.06, 1.82, 1.56, 7.20, repro,
2011-03-11,0.83, -2.67, -11.10, 1.81, 1.56, 7.17, repro,
2011-03-12,1.38, -1.98, -10.23, 1.82, 1.56, 7.18, repro,
2011-03-13,0.71, -2.53, -14.48, 1.84, 1.58, 7.24, repro,
2011-03-14,0.83, -1.94, -13.37, 1.88, 1.64, 7.37, repro,
2011-03-15,1.43, -2.08, -7.88, 2.09, 1.69, 8.16, repro,
2011-03-16,1.82, -3.42, -12.76, 1.92, 1.66, 7.46, repro,
2011-03-17,0.75, -2.86, -15.18, 1.96, 1.67, 7.58, repro,
2011-03-18,0.49, -2.05, -16.17, 2.13, 1.66, 8.27, repro,
2011-03-19,0.49, -3.06, -17.02, 1.96, 1.71, 7.64, repro,
2011-03-20,0.06, -2.39, -15.75, 1.87, 1.60, 7.36, repro,
2011-03-21,-0.89, -3.07, -11.30, 1.89, 1.62, 7.41, repro,
2011-03-22,1.05, -2.06, -8.54, 1.93, 1.65, 7.50, repro,
2011-03-23,0.48, -3.17, -9.33, 1.92, 1.66, 7.56, repro,
2011-03-24,0.80, -2.35, -6.11, 1.91, 1.67, 7.46, repro,
2011-03-25,0.15, -2.34, -6.39, 2.01, 1.67, 7.75, repro,
2011-03-26,-0.30, -3.34, -8.31, 2.09, 1.70, 8.12, repro,
2011-03-27,0.79, -3.02, -14.48, 1.90, 1.68, 7.45, repro,
2011-03-28,0.86, -3.15, -13.92, 1.85, 1.59, 7.30, repro,
2011-03-29,0.56, -3.57, -13.48, 1.84, 1.59, 7.28, repro,
2011-03-30,0.12, -2.92, -13.84, 1.85, 1.59, 7.31, repro,
2011-03-31,-0.83, -2.94, -13.10, 2.05, 1.67, 8.04, repro,
2011-04-01,0.20, -2.46, -13.03, 1.89, 1.60, 7.40, repro,
2011-04-02,-0.36, -2.54, -12.16, 1.95, 1.71, 7.65, repro,
2011-04-03,0.06, -3.82, -15.94, 1.90, 1.62, 7.52, repro,
2011-04-04,0.40, -3.02, -12.04, 1.91, 1.63, 7.55, repro,
2011-04-05,1.25, -3.24, -10.64, 1.89, 1.66, 7.62, repro,
2011-04-06,0.43, -4.48, -9.82, 1.88, 1.62, 7.52, repro,
2011-04-07,0.85, -2.52, -12.78, 1.83, 1.57, 7.30, repro,
2011-04-08,0.36, -2.16, -11.79, 1.89, 1.60, 7.42, repro,
2011-04-09,0.84, -1.36, -12.98, 1.90, 1.60, 7.47, repro,
2011-04-10,1.72, -3.01, -11.90, 1.87, 1.61, 7.38, repro,
2011-04-11,1.69, -3.33, -14.26, 1.94, 1.67, 7.61, repro,
2011-04-12,0.81, -3.36, -16.83, 1.88, 1.64, 7.51, repro,
2011-04-13,1.57, -3.74, -12.08, 1.82, 1.57, 7.25, repro,
2011-04-14,1.14, -2.08, -13.82, 1.83, 1.58, 7.31, repro,
2011-04-15,-0.14, -2.78, -17.80, 1.82, 1.57, 7.25, repro,
2011-04-16,-0.51, -2.53, -10.14, 1.81, 1.56, 7.17, repro,
2011-04-17,0.01, -1.96, -11.95, 1.82, 1.56, 7.19, repro,
2011-04-18,-0.05, -3.71, -6.91, 1.82, 1.56, 7.21, repro,
2011-04-19,0.31, -2.17, -9.67, 1.83, 1.57, 7.26, repro,
2011-04-20,0.75, -2.57, -12.91, 1.82, 1.56, 7.24, repro,
2011-04-21,0.11, -1.85, -11.18, 1.87, 1.59, 7.54, repro,
2011-04-22,0.49, -2.96, -10.20, 1.82, 1.56, 7.20, repro,
2011-04-23,-0.67, -2.26, -6.61, 1.83, 1.56, 7.22, repro,
2011-04-24,-1.25, -0.75, -10.03, 1.82, 1.55, 7.20, repro,
2011-04-25,1.96, -2.26, -12.76, 1.83, 1.56, 7.23, repro,
2011-04-26,0.68, -3.82, -9.32, 1.81, 1.55, 7.22, repro,
2011-04-27,0.98, -2.61, -7.55, 1.81, 1.55, 7.21, repro,
2011-04-28,1.36, -2.23, -11.27, 1.83, 1.57, 7.32, repro,
2011-04-29,0.54, -2.13, -10.86, 1.82, 1.55, 7.20, repro,
2011-04-30,0.05, -2.94, -7.87, 1.97, 1.84, 8.12, repro,
2011-05-01,0.00, -2.75, -5.93, 1.82, 1.55, 7.20, repro,
2011-05-02,1.22, -2.72, -9.86, 1.80, 1.55, 7.16, repro,
2011-05-03,0.56, -2.85, -11.95, 1.83, 1.59, 7.31, repro,
2011-05-04,0.31, -2.76, -11.49, 1.84, 1.59, 7.33, repro,
2011-05-05,0.55, -2.11, -10.43, 1.85, 1.57, 7.30, repro,
2011-05-06,1.25, -2.74, -6.36, 1.86, 1.57, 7.31, repro,
2011-05-07,-0.46, -3.72, -5.72, 1.84, 1.60, 7.35, repro,
2011-05-08,-0.02, -3.09, -3.42, 1.82, 1.59, 7.30, repro,
2011-05-09,-0.74, -3.51, -3.44, 1.83, 1.60, 7.36, repro,
2011-05-10,1.32, -2.15, -3.51, 1.83, 1.59, 7.33, repro,
2011-05-11,0.75, -2.58, -0.75, 1.82, 1.56, 7.22, repro,
2011-05-12,0.03, -2.39, -5.86, 1.82, 1.55, 7.20, repro,
2011-05-13,0.02, -0.36, -11.63, 1.86, 1.63, 7.53, repro,
2011-05-14,0.13, -4.06, -10.45, 1.86, 1.64, 7.49, repro,
2011-05-15,0.15, -3.12, -8.86, 1.84, 1.60, 7.34, repro,
2011-05-16,0.78, -3.14, -12.23, 1.83, 1.60, 7.32, repro,
2011-05-17,-0.09, -3.20, -3.57, 1.85, 1.60, 7.40, repro,
2011-05-18,-1.86, -2.54, -9.85, 1.86, 1.65, 7.53, repro,
2011-05-19,-0.80, -2.32, -6.96, 1.85, 1.65, 7.50, repro,
2011-05-20,0.13, -1.96, -12.78, 1.86, 1.65, 7.51, repro,
2011-05-21,-1.01, -0.82, -6.35, 1.86, 1.65, 7.51, repro,
2011-05-22,0.62, -3.35, -8.97, 1.85, 1.61, 7.37, repro,
2011-05-23,0.29, -3.86, -7.68, 1.85, 1.60, 7.37, repro,
2011-05-24,-0.31, -3.36, -12.68, 1.87, 1.65, 7.55, repro,
2011-05-25,0.08, -3.02, -6.30, 1.92, 1.71, 7.64, repro,
2011-05-26,1.66, -3.07, -10.71, 1.87, 1.66, 7.57, repro,
2011-05-27,-0.31, -2.29, -6.36, 1.85, 1.64, 7.45, repro,
2011-05-28,-0.13, -0.85, -8.84, 1.86, 1.64, 7.52, repro,
2011-05-29,-0.28, -2.43, -6.37, 1.87, 1.65, 7.55, repro,
2011-05-30,1.34, -3.27, -3.91, 1.92, 1.71, 7.65, repro,
2011-05-31,1.99, -3.84, -8.46, 1.85, 1.60, 7.38, repro,
2011-06-01,1.41, -3.08, -10.98, 1.86, 1.63, 7.47, repro,
2011-06-02,1.56, -3.13, -3.35, 1.85, 1.63, 7.44, repro,
2011-06-03,0.18, -2.89, -6.37, 1.84, 1.59, 7.36, repro,
2011-06-04,0.15, -3.58, -11.23, 1.86, 1.59, 7.38, repro,
2011-06-05,0.99, -3.59, -11.98, 1.85, 1.60, 7.36, repro,
2011-06-06,0.54, -4.30, -5.67, 1.84, 1.59, 7.30, repro,
2011-06-07,1.73, -3.43, -6.77, 1.83, 1.58, 7.26, repro,
2011-06-08,0.84, -2.84, -9.48, 1.83, 1.59, 7.32, repro,
2011-06-09,1.86, -3.77, -6.86, 1.85, 1.59, 7.38, repro,
2011-06-10,0.64, -3.52, -9.36, 1.85, 1.60, 7.36, repro,
2011-06-11,2.08, -3.60, 1.14, 1.84, 1.59, 7.33, repro,
2011-06-12,1.55, -3.37, -4.54, 1.84, 1.60, 7.35, repro,
2011-06-13,1.41, -3.67, -3.31, 1.82, 1.59, 7.28, repro,
2011-06-14,0.25, -1.91, -4.20, 1.84, 1.59, 7.36, repro,
2011-06-15,0.06, -3.01, -7.27, 1.85, 1.60, 7.38, repro,
2011-06-16,1.81, -5.15, -4.56, 1.84, 1.60, 7.36, repro,
2011-06-17,1.16, -4.17, -0.48, 1.85, 1.61, 7.43, repro,
2011-06-18,1.23, -3.67, -14.23, 1.83, 1.59, 7.31, repro,
2011-06-19,2.31, -4.63, -5.58, 1.84, 1.60, 7.31, repro,
2011-06-20,1.81, -3.65, -5.97, 1.84, 1.59, 7.31, repro,
2011-06-21,1.36, -3.41, -2.08, 1.85, 1.60, 7.35, repro,
2011-06-22,0.99, -4.61, -3.08, 1.85, 1.61, 7.40, repro,
2011-06-23,0.54, -3.25, -8.21, 1.83, 1.60, 7.33, repro,
2011-06-24,0.29, -4.64, -6.93, 1.83, 1.59, 7.27, repro,
2011-06-25,1.38, -4.94, 0.98, 1.84, 1.60, 7.32, repro,
2011-06-26,2.43, -4.98, -2.88, 1.86, 1.60, 7.37, repro,
2011-06-27,2.04, -5.51, -6.01, 1.85, 1.60, 7.41, repro,
2011-06-28,1.87, -4.17, -7.22, 1.85, 1.60, 7.34, repro,
2011-06-29,2.68, -5.35, -5.55, 1.84, 1.59, 7.34, repro,
2011-06-30,2.48, -4.34, -7.28, 1.85, 1.59, 7.32, repro,
2011-07-01,2.21, -3.85, -2.32, 1.84, 1.58, 7.28, repro,
2011-07-02,2.48, -4.66, -3.83, 1.85, 1.60, 7.36, repro,
2011-07-03,3.80, -4.14, -9.56, 1.85, 1.60, 7.38, repro,
2011-07-04,4.04, -4.54, -4.36, 1.86, 1.65, 7.54, repro,
2011-07-05,3.11, -2.83, -6.65, 1.98, 1.67, 8.07, repro,
2011-07-06,2.32, -5.69, -11.15, 1.92, 1.68, 7.89, repro,
2011-07-07,3.24, -3.43, -13.16, 2.01, 1.85, 8.28, repro,
2011-07-08,3.96, -4.36, -6.22, 1.89, 1.61, 7.59, repro,
2011-07-09,0.67, -4.43, -3.11, 1.89, 1.60, 7.54, repro,
2011-07-10,1.51, -3.10, 0.92, 1.88, 1.60, 7.55, repro,
2011-07-11,3.33, -3.93, -8.92, 1.88, 1.61, 7.56, repro,
2011-07-12,1.92, -3.22, -14.79, 1.87, 1.60, 7.51, repro,
2011-07-13,1.98, -4.88, -6.45, 1.89, 1.61, 7.61, repro,
2011-07-14,2.71, -4.12, -10.62, 1.90, 1.61, 7.58, repro,
2011-07-15,3.12, -4.55, -9.78, 1.88, 1.60, 7.52, repro,
2011-07-16,2.03, -5.35, -8.54, 1.88, 1.60, 7.50, repro,
2011-07-17,2.28, -3.63, -8.57, 1.87, 1.60, 7.50, repro,
2011-07-18,2.64, -4.03, -5.41, 1.89, 1.61, 7.55, repro,
2011-07-19,3.45, -2.52, -3.25, 1.89, 1.61, 7.55, repro,
2011-07-20,3.33, -2.70, -6.01, 1.90, 1.63, 7.60, repro,
2011-07-21,2.62, -4.93, -1.70, 1.89, 1.60, 7.52, repro,
2011-07-22,2.81, -5.35, -4.19, 1.89, 1.63, 7.59, repro,
2011-07-23,2.79, -3.40, -3.39, 1.88, 1.60, 7.48, repro,
2011-07-24,3.93, -4.57, -2.86, 1.89, 1.61, 7.53, repro,
2011-07-25,2.45, -2.74, -4.90, 1.90, 1.61, 7.57, repro,
2011-07-26,2.51, -4.03, -5.18, 1.89, 1.60, 7.53, repro,
2011-07-27,1.99, -3.97, -6.56, 1.87, 1.59, 7.44, repro,
2011-07-28,2.83, -3.97, -2.05, 1.91, 1.63, 7.65, repro,
2011-07-29,2.36, -3.94, -0.65, 1.89, 1.61, 7.57, repro,
2011-07-30,1.93, -4.01, -3.63, 1.89, 1.61, 7.58, repro,
2011-07-31,2.66, -3.38, -3.32, 1.89, 1.61, 7.58, repro,
2011-08-01,3.28, -3.73, -10.13, 1.88, 1.60, 7.54, repro,
2011-08-02,2.14, -4.76, -2.33, 1.87, 1.59, 7.46, repro,
2011-08-03,2.02, -3.47, -6.37, 1.93, 1.67, 7.79, repro,
2011-08-04,2.97, -2.84, -7.55, 1.89, 1.61, 7.58, repro,
2011-08-05,2.22, -3.71, -1.27, 1.88, 1.61, 7.54, repro,
2011-08-06,1.73, -3.64, -5.42, 1.90, 1.62, 7.61, repro,
2011-08-07,1.90, -3.15, -8.74, 1.90, 1.62, 7.61, repro,
2011-08-08,2.63, -4.15, -2.92, 1.89, 1.63, 7.63, repro,
2011-08-09,2.71, -2.61, -8.09, 1.91, 1.63, 7.68, repro,
2011-08-10,2.53, -4.34, -16.18, 1.91, 1.63, 7.63, repro,
2011-08-11,2.91, -3.76, -7.23, 2.00, 1.66, 7.96, repro,
2011-08-12,1.17, -3.84, -0.12, 1.99, 1.67, 7.98, repro,
2011-08-13,2.47, -4.88, -7.96, 1.90, 1.62, 7.56, repro,
2011-08-14,0.73, -4.04, -7.15, 1.91, 1.63, 7.58, repro,
2011-08-15,1.60, -3.20, -8.04, 1.91, 1.64, 7.64, repro,
2011-08-16,2.17, -4.35, -9.77, 1.92, 1.64, 7.68, repro,
2011-08-17,2.10, -4.62, -6.49, 1.89, 1.64, 7.61, repro,
2011-08-18,1.62, -4.06, -2.88, 1.88, 1.62, 7.57, repro,
2011-08-19,1.28, -4.36, -7.81, 1.88, 1.62, 7.58, repro,
2011-08-20,1.26, -2.71, -10.64, 1.89, 1.63, 7.61, repro,
2011-08-21,1.93, -2.83, -8.42, 1.93, 1.66, 7.76, repro,
2011-08-22,4.34, -4.13, -0.08, 1.91, 1.64, 7.64, repro,
2011-08-23,2.49, -4.22, -2.09, 1.93, 1.68, 7.74, repro,
2011-08-24,3.24, -4.12, -8.04, 1.88, 1.62, 7.55, repro,
2011-08-25,1.86, -4.96, -6.83, 1.87, 1.62, 7.52, repro,
2011-08-26,2.05, -4.26, 2.52, 2.03, 1.80, 8.02, repro,
2011-08-27,2.27, -3.59, -6.08, 1.96, 1.73, 8.01, repro,
2011-08-28,2.01, -4.05, -0.63, 1.94, 1.66, 7.83, repro,
2011-08-29,1.92, -4.09, -9.37, 1.91, 1.65, 7.67, repro,
2011-08-30,0.74, -4.19, -3.48, 1.97, 1.67, 7.94, repro,
2011-08-31,2.60, -6.27, -0.15, 1.99, 1.71, 8.07, repro,
2011-09-01,2.85, -4.83, -3.13, 1.96, 1.64, 7.98, repro,
2011-09-02,1.93, -3.35, 0.16, 1.96, 1.63, 7.93, repro,
2011-09-03,2.86, -6.22, 0.46, 1.89, 1.61, 7.58, repro,
2011-09-04,2.27, -4.22, -7.57, 1.87, 1.61, 7.53, repro,
2011-09-05,2.63, -4.87, -3.61, 2.09, 1.80, 8.33, repro,
2011-09-06,2.00, -4.89, -2.32, 1.89, 1.63, 7.61, repro,
2011-09-07,1.54, -4.06, -20.10, 2.35, 1.92, 9.08, repro,
2011-09-08,1.92, -3.93, -8.06, 1.93, 1.65, 7.74, repro,
2011-09-09,0.77, -3.82, -8.81, 1.90, 1.64, 7.61, repro,
2011-09-10,1.14, -3.87, -5.07, 1.89, 1.64, 7.59, repro,
2011-09-11,2.20, -3.00, -10.95, 1.91, 1.66, 7.70, repro,
2011-09-12,2.84, -3.80, -7.64, 1.95, 1.70, 7.83, repro,
2011-09-13,1.47, -4.52, -2.21, 1.96, 1.71, 7.80, repro,
2011-09-14,2.15, -5.00, -6.67, 1.89, 1.63, 7.55, repro,
2011-09-15,1.82, -5.86, -6.04, 1.88, 1.62, 7.52, repro,
2011-09-16,3.34, -4.24, -1.92, 1.92, 1.67, 7.61, repro,
2011-09-17,2.58, -3.72, -1.91, 1.89, 1.63, 7.60, repro,
2011-09-18,5.14, -4.78, -6.85, 1.92, 1.66, 7.64, repro,
2011-09-19,4.52, -3.83, -7.95, 1.96, 1.71, 7.82, repro,
2011-09-20,1.80, -4.45, -9.34, 1.92, 1.66, 7.61, repro,
2011-09-21,1.60, -5.06, -3.17, 1.91, 1.67, 7.67, repro,
2011-09-22,3.62, -5.13, -6.89, 1.90, 1.64, 7.63, repro,
2011-09-23,1.48, -4.90, -3.30, 1.91, 1.67, 7.66, repro,
2011-09-24,1.29, -4.89, -7.60, 1.92, 1.65, 7.62, repro,
2011-09-25,3.11, -4.43, -4.01, 1.89, 1.63, 7.61, repro,
2011-09-26,2.37, -3.57, -0.50, 1.93, 1.65, 7.70, repro,
2011-09-27,1.90, -5.77, -4.72, 1.87, 1.61, 7.50, repro,
2011-09-28,1.77, -4.62, -12.27, 1.97, 1.71, 7.79, repro,
2011-09-29,2.73, -5.38, -5.26, 1.96, 1.70, 7.71, repro,
2011-09-30,2.43, -4.96, -4.69, 2.01, 1.75, 7.90, repro,
2011-10-01,2.33, -4.41, -6.09, 2.00, 1.77, 7.94, repro,
2011-10-02,1.05, -5.33, -7.69, 2.04, 1.80, 8.14, repro,
2011-10-03,1.09, -4.42, -8.59, 1.96, 1.69, 7.69, repro,
2011-10-04,0.80, -6.15, -7.20, 1.93, 1.66, 7.63, repro,
2011-10-05,0.69, -5.59, -7.81, 1.93, 1.65, 7.59, repro,
2011-10-06,3.33, -5.76, -7.14, 1.96, 1.72, 7.78, repro,
2011-10-07,3.50, -6.56, -5.39, 1.92, 1.65, 7.59, repro,
2011-10-08,3.47, -5.10, -8.04, 1.96, 1.70, 7.70, repro,
2011-10-09,2.47, -4.65, -6.43, 1.96, 1.69, 7.73, repro,
2011-10-10,3.01, -5.31, -3.61, 1.93, 1.65, 7.62, repro,
2011-10-11,3.64, -4.43, -5.45, 1.96, 1.71, 7.77, repro,
2011-10-12,3.81, -4.90, -1.65, 1.95, 1.71, 7.79, repro,
2011-10-13,2.85, -5.39, -3.31, 1.94, 1.70, 7.68, repro,
2011-10-14,4.24, -4.56, -8.53, 1.92, 1.65, 7.59, repro,
2011-10-15,3.80, -2.98, -4.50, 1.96, 1.69, 7.72, repro,
2011-10-16,3.22, -3.38, -11.30, 1.93, 1.66, 7.69, repro,
2011-10-17,2.15, -3.40, -6.34, 1.88, 1.62, 7.56, repro,
2011-10-18,3.26, -4.23, -7.47, 1.92, 1.66, 7.63, repro,
2011-10-19,2.00, -4.45, -5.70, 1.95, 1.70, 7.68, repro,
2011-10-20,1.15, -4.64, -3.68, 1.92, 1.64, 7.58, repro,